• In Latvia
  • List of Countries
  • For 7 days
  • Water Temperature
  • Satellite Maps
  • Weather Map
  • Weather Widgets
  • user-avatar
    Login

    Hourly Weather Egna

    Today, 21 September, Friday

    Time Temperature Precipitation Wind Pressure Humidity
    00:00 +14°C° 0 mm 2 mps 745 mmHg 92%
    01:00 +14°C° 0 mm 2 mps 745 mmHg 93%
    02:00 +14°C° 0 mm 2 mps 745 mmHg 94%
    03:00 +14°C° 0 mm 2 mps 746 mmHg 94%
    04:00 +13°C° 0 mm 2 mps 746 mmHg 95%
    05:00 +12°C° 0 mm 3 mps 746 mmHg 95%
    06:00 +14°C° 0 mm 3 mps 746 mmHg 90%
    07:00 +16°C° 0 mm 3 mps 746 mmHg 85%
    08:00 +17°C° 0 mm 3 mps 746 mmHg 80%
    09:00 +19°C° 0 mm 3 mps 746 mmHg 74%
    10:00 +20°C° 0 mm 3 mps 747 mmHg 68%
    11:00 +22°C° 0 mm 4 mps 747 mmHg 62%
    12:00 +22°C° 0 mm 4 mps 747 mmHg 60%
    13:00 +23°C° 0 mm 4 mps 747 mmHg 58%
    14:00 +23°C° 0 mm 4 mps 747 mmHg 56%
    15:00 +22°C° 0.3 mm 3 mps 746 mmHg 65%
    16:00 +21°C° 0.3 mm 3 mps 746 mmHg 73%
    17:00 +20°C° 0.3 mm 2 mps 746 mmHg 81%
    18:00 +19°C° 0 mm 2 mps 746 mmHg 85%
    19:00 +18°C° 0 mm 2 mps 746 mmHg 89%
    20:00 +17°C° 0 mm 2 mps 746 mmHg 94%
    21:00 +17°C° 0 mm 2 mps 746 mmHg 94%
    22:00 +17°C° 0 mm 2 mps 746 mmHg 94%
    23:00 +16°C° 0 mm 2 mps 746 mmHg 95%

    Tomorrow, 22 September, Saturday

    Time Temperature Precipitation Wind Pressure Humidity
    00:00 +16°C° 0 mm 2 mps 746 mmHg 94%
    01:00 +16°C° 0 mm 3 mps 746 mmHg 94%
    02:00 +16°C° 0 mm 3 mps 746 mmHg 94%
    03:00 +16°C° 0 mm 3 mps 745 mmHg 94%
    04:00 +16°C° 0 mm 3 mps 745 mmHg 95%
    05:00 +14°C° 0 mm 3 mps 745 mmHg 95%
    06:00 +15°C° 0 mm 4 mps 744 mmHg 91%
    07:00 +17°C° 0 mm 4 mps 744 mmHg 86%
    08:00 +18°C° 0 mm 4 mps 744 mmHg 82%
    09:00 +20°C° 0 mm 5 mps 743 mmHg 75%
    10:00 +21°C° 0 mm 5 mps 743 mmHg 67%
    11:00 +23°C° 0 mm 6 mps 743 mmHg 59%
    12:00 +23°C° 0 mm 6 mps 742 mmHg 56%
    13:00 +24°C° 0 mm 6 mps 742 mmHg 53%
    14:00 +24°C° 0 mm 6 mps 741 mmHg 50%
    15:00 +23°C° 0 mm 6 mps 741 mmHg 54%
    16:00 +22°C° 0 mm 5 mps 741 mmHg 59%
    17:00 +21°C° 0 mm 4 mps 740 mmHg 63%
    18:00 +19°C° 0.2 mm 4 mps 741 mmHg 70%
    19:00 +18°C° 0.2 mm 4 mps 741 mmHg 76%
    20:00 +17°C° 0.2 mm 4 mps 741 mmHg 83%
    21:00 +14°C° 0.2 mm 3 mps 741 mmHg 85%
    22:00 +13°C° 0.2 mm 3 mps 741 mmHg 88%
    23:00 +13°C° 0.2 mm 2 mps 740 mmHg 90%

    Day after tomorrow, 23 September, Sunday

    Time Temperature Precipitation Wind Pressure Humidity
    00:00 +12°C° 0.4 mm 2 mps 740 mmHg 89%
    01:00 +12°C° 0.4 mm 2 mps 740 mmHg 88%
    02:00 +10°C° 0.4 mm 2 mps 740 mmHg 88%
    03:00 +10°C° 0.2 mm 2 mps 740 mmHg 89%
    04:00 +10°C° 0.2 mm 2 mps 740 mmHg 90%
    05:00 +10°C° 0.2 mm 2 mps 740 mmHg 91%
    06:00 +10°C° 0.5 mm 2 mps 740 mmHg 91%
    07:00 +10°C° 0.5 mm 2 mps 740 mmHg 92%
    08:00 +10°C° 0.5 mm 2 mps 740 mmHg 93%
    09:00 +10°C° 0.8 mm 2 mps 739 mmHg 93%
    10:00 +10°C° 0.8 mm 2 mps 739 mmHg 93%
    11:00 +10°C° 0.8 mm 2 mps 739 mmHg 92%
    12:00 +10°C° 1 mm 2 mps 739 mmHg 92%
    13:00 +10°C° 1 mm 2 mps 739 mmHg 92%
    14:00 +10°C° 1 mm 2 mps 739 mmHg 92%
    15:00 +10°C° 0.8 mm 2 mps 739 mmHg 93%
    16:00 +9°C° 0.8 mm 2 mps 739 mmHg 94%
    17:00 +10°C° 0.8 mm 1 mps 738 mmHg 95%
    18:00 +9°C° 0.1 mm 2 mps 738 mmHg 95%
    19:00 +9°C° 0.1 mm 2 mps 739 mmHg 96%
    20:00 +9°C° 0.1 mm 2 mps 739 mmHg 96%
    21:00 +8°C° 0 mm 2 mps 739 mmHg 96%
    22:00 +8°C° 0 mm 2 mps 739 mmHg 96%
    23:00 +8°C° 0 mm 2 mps 739 mmHg 96%

    24 September, Monday

    Time Temperature Precipitation Wind Pressure Humidity
    00:00 +7°C° 0 mm 2 mps 739 mmHg 96%
    01:00 +7°C° 0 mm 2 mps 739 mmHg 96%
    02:00 +6°C° 0 mm 2 mps 739 mmHg 97%
    03:00 +6°C° 0 mm 2 mps 738 mmHg 97%
    04:00 +6°C° 0 mm 2 mps 738 mmHg 97%
    05:00 +5°C° 0 mm 3 mps 738 mmHg 97%
    06:00 +5°C° 0 mm 3 mps 738 mmHg 95%
    07:00 +7°C° 0 mm 3 mps 738 mmHg 92%
    08:00 +8°C° 0 mm 3 mps 738 mmHg 90%
    09:00 +8°C° 0 mm 3 mps 739 mmHg 87%
    10:00 +8°C° 0 mm 3 mps 739 mmHg 85%
    11:00 +9°C° 0 mm 3 mps 740 mmHg 83%
    12:00 +9°C° 0 mm 3 mps 740 mmHg 81%
    13:00 +10°C° 0 mm 3 mps 740 mmHg 79%
    14:00 +10°C° 0 mm 3 mps 740 mmHg 77%
    15:00 +9°C° 0 mm 3 mps 740 mmHg 80%
    16:00 +9°C° 0 mm 2 mps 740 mmHg 83%
    17:00 +8°C° 0 mm 2 mps 740 mmHg 86%
    18:00 +8°C° 0 mm 2 mps 740 mmHg 88%
    19:00 +7°C° 0 mm 2 mps 740 mmHg 90%
    20:00 +7°C° 0 mm 2 mps 740 mmHg 91%
    21:00 +7°C° 0.1 mm 2 mps 740 mmHg 91%
    22:00 +7°C° 0.1 mm 2 mps 740 mmHg 91%
    23:00 +7°C° 0.1 mm 2 mps 739 mmHg 91%

    25 September, Tuesday

    Time Temperature Precipitation Wind Pressure Humidity
    00:00 +7°C° 0.3 mm 2 mps 739 mmHg 91%
    01:00 +7°C° 0.3 mm 3 mps 738 mmHg 92%
    02:00 +7°C° 0.3 mm 3 mps 738 mmHg 93%
    03:00 +6°C° 0.6 mm 4 mps 737 mmHg 92%
    04:00 +6°C° 0.6 mm 5 mps 737 mmHg 92%
    05:00 +7°C° 0.6 mm 5 mps 736 mmHg 91%
    06:00 +7°C° 0.9 mm 6 mps 735 mmHg 91%
    07:00 +7°C° 0.9 mm 6 mps 735 mmHg 90%
    08:00 +7°C° 0.9 mm 6 mps 734 mmHg 90%
    09:00 +7°C° 1.5 mm 6 mps 733 mmHg 90%
    10:00 +7°C° 1.5 mm 6 mps 733 mmHg 91%
    11:00 +7°C° 1.5 mm 5 mps 732 mmHg 91%
    12:00 +7°C° 1.5 mm 5 mps 732 mmHg 92%
    13:00 +7°C° 1.5 mm 5 mps 732 mmHg 92%
    14:00 +8°C° 1.5 mm 5 mps 731 mmHg 92%
    15:00 +8°C° 0.7 mm 4 mps 731 mmHg 92%
    16:00 +8°C° 0.7 mm 4 mps 731 mmHg 92%
    17:00 +8°C° 0.7 mm 4 mps 731 mmHg 92%
    18:00 +8°C° 0.2 mm 3 mps 731 mmHg 93%
    19:00 +8°C° 0.2 mm 3 mps 731 mmHg 94%
    20:00 +8°C° 0.2 mm 2 mps 731 mmHg 95%
    21:00 +8°C° 0.4 mm 2 mps 731 mmHg 96%
    22:00 +8°C° 0.4 mm 2 mps 731 mmHg 96%
    23:00 +8°C° 0.4 mm 2 mps 731 mmHg 97%

    26 September, Wednesday

    Time Temperature Precipitation Wind Pressure Humidity
    00:00 +8°C° 0.7 mm 2 mps 731 mmHg 97%
    01:00 +8°C° 0.7 mm 2 mps 731 mmHg 97%
    02:00 +7°C° 0.7 mm 2 mps 731 mmHg 97%
    03:00 +7°C° 0.9 mm 2 mps 731 mmHg 97%
    04:00 +7°C° 0.9 mm 2 mps 731 mmHg 97%
    05:00 +7°C° 0.9 mm 2 mps 731 mmHg 97%
    06:00 +7°C° 0.4 mm 2 mps 732 mmHg 96%
    07:00 +8°C° 0.4 mm 2 mps 732 mmHg 95%
    08:00 +8°C° 0.4 mm 2 mps 733 mmHg 94%
    09:00 +8°C° 0.4 mm 2 mps 733 mmHg 92%
    10:00 +9°C° 0.4 mm 3 mps 734 mmHg 91%
    11:00 +9°C° 0.4 mm 3 mps 735 mmHg 89%
    12:00 +9°C° 0.3 mm 3 mps 735 mmHg 89%
    13:00 +8°C° 0.3 mm 4 mps 736 mmHg 88%
    14:00 +8°C° 0.3 mm 5 mps 737 mmHg 88%
    15:00 +7°C° 0.2 mm 5 mps 738 mmHg 87%
    16:00 +7°C° 0.2 mm 5 mps 739 mmHg 87%
    17:00 +6°C° 0.2 mm 5 mps 739 mmHg 87%
    18:00 +6°C° 0.1 mm 5 mps 740 mmHg 87%
    19:00 +6°C° 0.1 mm 5 mps 741 mmHg 88%
    20:00 +6°C° 0.1 mm 5 mps 742 mmHg 88%
    21:00 +5°C° 0.1 mm 5 mps 743 mmHg 88%
    22:00 +5°C° 0.1 mm 5 mps 743 mmHg 87%
    23:00 +5°C° 0.1 mm 5 mps 744 mmHg 87%
    Show more